Location: Ash Shall?l al Awwal
(24.0167°N, 32.8667°E)
Time: 04:17:56
(UTC+00:00)

Cosmos 2333 - Pass Details

Date: 02 March 2021
Orbit: 829 x 867 km, 70.9° (Epoch: 12 April)

Event Time Altitude Azimuth Distance (km) Brightness Sun altitude
Rises 16:55:03 0° 192° (SSW) 3,357 7.5 -15.2°
Reaches altitude 10° 16:57:29 10° 190° (S) 2,429 6.7 -15.8°
Maximum altitude 17:03:01 72° 107° (ESE) 876 4.1 -17.0°
Drops below altitude 10° 17:08:38 10° 23° (NNE) 2,459 6.4 -18.3°
Sets 17:11:06 0° 21° (NNE) 3,402 7.1 -18.9°
